This is the latest recevied weather packets stored in our database for station/object KC9DRE. If no packets are shown the sender has not sent any weather packets the latest 1 day(s).
| Time | Temp. | Humidity | Pressure | Rain* | Wind** | Luminosity | Snow |
|---|---|---|---|---|---|---|---|
| 1778011901 | 16.11° C | 93% | 1008.8 hPa | 0 mm | 0.89 m/s, 251° | 65 W/m² | - |
| 1778011599 | 16.11° C | 93% | 1008.6 hPa | 0 mm | 0 m/s | 79 W/m² | - |
| 1778011295 | 16.11° C | 93% | 1008.8 hPa | 0 mm | 0 m/s | 118 W/m² | - |
| 1778010991 | 16.11° C | 93% | 1008.9 hPa | 0 mm | 0 m/s | 85 W/m² | - |
| 1778010689 | 16.11° C | 93% | 1009.1 hPa | 0 mm | 0 m/s | 77 W/m² | - |
| 1778010386 | 16.11° C | 93% | 1008.8 hPa | 0 mm | 0 m/s | 136 W/m² | - |
| 1778010081 | 16.11° C | 92% | 1008.9 hPa | 0 mm | 0 m/s | 75 W/m² | - |
| 1778009778 | 16.67° C | 92% | 1009.1 hPa | 0 mm | 0 m/s | 64 W/m² | - |
| 1778009476 | 16.67° C | 92% | 1009.1 hPa | 0 mm | 0 m/s | 67 W/m² | - |
| 1778009174 | 16.67° C | 91% | 1009.1 hPa | 0 mm | 0.45 m/s, 261° | 97 W/m² | - |
| 1778008871 | 16.67° C | 92% | 1009.2 hPa | 0 mm | 0 m/s | 141 W/m² | - |
| 1778008569 | 16.67° C | 92% | 1009.3 hPa | 0 mm | 0.45 m/s, 279° | 180 W/m² | - |
| 1778008267 | 16.67° C | 92% | 1009.3 hPa | 0 mm | 0.45 m/s, 279° | 186 W/m² | - |
| 1778007962 | 16.11° C | 92% | 1009.3 hPa | 0 mm | 0.45 m/s, 251° | 146 W/m² | - |
| 1778007658 | 16.67° C | 91% | 1009.6 hPa | 0 mm | 0.89 m/s, 270° | 44 W/m² | - |
| 1778007355 | 16.67° C | 91% | 1009.5 hPa | 0 mm | 0.45 m/s, 269° | 71 W/m² | - |
| 1778007051 | 16.67° C | 92% | 1009.5 hPa | 0 mm | 0 m/s | 124 W/m² | - |
| 1778006748 | 16.67° C | 91% | 1009.7 hPa | 0 mm | 0.45 m/s, 260° | 131 W/m² | - |
| 1778006445 | 16.67° C | 91% | 1009.7 hPa | 0 mm | 0.45 m/s, 214° | 144 W/m² | - |
| 1778006141 | 16.67° C | 91% | 1009.5 hPa | 0 mm | 0.89 m/s, 261° | 188 W/m² | - |
| 1778005839 | 16.67° C | 92% | 1009.6 hPa | 0 mm | 0.89 m/s, 260° | 145 W/m² | - |
| 1778005535 | 16.67° C | 92% | 1009.6 hPa | 0 mm | 0 m/s | 221 W/m² | - |
| 1778005232 | 16.11° C | 92% | 1009.5 hPa | 0 mm | 0 m/s | 204 W/m² | - |
| 1778004929 | 16.11° C | 93% | 1009.5 hPa | 0 mm | 0 m/s | 200 W/m² | - |
| 1778004626 | 16.11° C | 93% | 1009.7 hPa | 0 mm | 0 m/s | 196 W/m² | - |
* Rain latest hour (hover to see other rain measurements)
** Current wind speed in m/s (hover to see current wind gust speed)